Location: Stockholm
(59.3330°N, 18.0500°E)
Time: 10:09:36
(UTC+01:00)

FENGYUN 1C DEB - Pass Details

Date: 13 December 2023
Orbit: 841 x 915 km, 98.8° (Epoch: 21 February)

Event Time Altitude Azimuth Distance (km) Brightness Sun altitude
Exits shadow 20:19:29 15° 343° (NNW) 2,150 ? -39.5°
Drops below altitude 10° 20:20:21 10° 343° (NNW) 2,487 ? -39.6°
Sets 20:22:44 0° 343° (NNW) 3,434 ? -39.9°
